Time,TemperatureF,DewpointF,PressureIn,WindDirection,WindDirectionDegrees,WindSpeedMPH,WindSpeedGustMPH,Humidity,HourlyPrecipIn,Conditions,Clouds,dailyrainin,SoftwareType,DateUTC
2013-03-24 00:01:00,29.8,-9.0,27.05,North,0,0.0,0.0,18,0.00,NA,NA,-99.99,wxupload 3.5,2013-03-24 04:01:00,
2013-03-24 00:02:00,29.8,-9.0,27.05,North,0,0.0,0.0,18,0.00,NA,NA,-99.99,wxupload 3.5,2013-03-24 04:02:00,
2013-03-24 00:07:00,29.7,-9.1,27.05,North,0,0.0,0.0,18,0.00,NA,NA,-99.99,wxupload 3.5,2013-03-24 04:07:00,
2013-03-24 00:10:00,29.5,-9.3,27.05,North,0,0.0,0.0,18,0.00,NA,NA,-99.99,wxupload 3.5,2013-03-24 04:10:00,
2013-03-24 00:16:00,29.5,-9.3,27.05,North,0,0.0,0.0,18,0.00,NA,NA,-99.99,wxupload 3.5,2013-03-24 04:16:00,
2013-03-24 00:23:00,29.3,-9.4,27.05,North,0,0.0,0.0,18,0.00,NA,NA,-99.99,wxupload 3.5,2013-03-24 04:23:00,
2013-03-24 00:29:00,29.3,-9.4,27.05,North,0,0.0,0.0,18,0.00,NA,NA,-99.99,wxupload 3.5,2013-03-24 04:29:00,
2013-03-24 00:35:00,29.1,-9.6,27.05,North,0,0.0,0.0,18,0.00,NA,NA,-99.99,wxupload 3.5,2013-03-24 04:35:00,
2013-03-24 00:40:00,28.9,-9.7,27.05,North,0,0.0,0.0,18,0.00,NA,NA,-99.99,wxupload 3.5,2013-03-24 04:40:00,
2013-03-24 00:46:00,28.8,-9.9,27.05,North,0,0.0,0.0,18,0.00,NA,NA,-99.99,wxupload 3.5,2013-03-24 04:46:00,
2013-03-24 00:52:00,28.6,-10.0,27.05,North,0,0.0,0.0,18,0.00,NA,NA,-99.99,wxupload 3.5,2013-03-24 04:52:00,
2013-03-24 00:58:00,28.4,-10.2,27.05,North,0,0.0,0.0,18,0.00,NA,NA,-99.99,wxupload 3.5,2013-03-24 04:58:00,
2013-03-24 01:04:00,28.2,-10.3,27.05,North,0,0.0,0.0,18,0.00,NA,NA,-99.99,wxupload 3.5,2013-03-24 05:04:00,
2013-03-24 01:10:00,28.0,-10.5,27.05,North,0,0.0,0.0,18,0.00,NA,NA,-99.99,wxupload 3.5,2013-03-24 05:10:00,
2013-03-24 01:19:00,27.9,-10.6,27.05,North,0,0.0,0.0,18,0.00,NA,NA,-99.99,wxupload 3.5,2013-03-24 05:19:00,
2013-03-24 01:25:00,27.5,-10.9,27.05,North,0,0.0,0.0,18,0.00,NA,NA,-99.99,wxupload 3.5,2013-03-24 05:25:00,
2013-03-24 01:31:00,27.3,-11.1,27.05,North,0,0.0,0.0,18,0.00,NA,NA,-99.99,wxupload 3.5,2013-03-24 05:31:00,
2013-03-24 01:36:00,27.1,-11.3,27.05,North,0,0.0,0.0,18,0.00,NA,NA,-99.99,wxupload 3.5,2013-03-24 05:36:00,
2013-03-24 01:42:00,27.1,-11.3,27.05,North,0,0.0,0.0,18,0.00,NA,NA,-99.99,wxupload 3.5,2013-03-24 05:42:00,
2013-03-24 01:48:00,27.0,-11.4,27.05,North,0,0.0,0.0,18,0.00,NA,NA,-99.99,wxupload 3.5,2013-03-24 05:48:00,
2013-03-24 01:54:00,26.8,-11.6,27.05,North,0,0.0,0.0,18,0.00,NA,NA,-99.99,wxupload 3.5,2013-03-24 05:54:00,
2013-03-24 02:00:00,26.6,-10.6,27.05,North,0,0.0,0.0,19,0.00,NA,NA,-99.99,wxupload 3.5,2013-03-24 06:00:00,
2013-03-24 02:06:00,26.4,-10.7,27.05,North,0,0.0,0.0,19,0.00,NA,NA,-99.99,wxupload 3.5,2013-03-24 06:06:00,
2013-03-24 02:12:00,26.4,-10.7,27.05,North,0,0.0,0.0,19,0.00,NA,NA,-99.99,wxupload 3.5,2013-03-24 06:12:00,
2013-03-24 02:18:00,26.4,-10.7,27.05,North,0,0.0,0.0,19,0.00,NA,NA,-99.99,wxupload 3.5,2013-03-24 06:18:00,
2013-03-24 02:24:00,26.2,-10.9,27.05,North,0,0.0,0.0,19,0.00,NA,NA,-99.99,wxupload 3.5,2013-03-24 06:24:00,
2013-03-24 02:30:00,26.1,-11.1,27.05,North,0,0.0,0.0,19,0.00,NA,NA,-99.99,wxupload 3.5,2013-03-24 06:30:00,
2013-03-24 02:37:00,26.2,-10.9,27.05,North,0,0.0,0.0,19,0.00,NA,NA,-99.99,wxupload 3.5,2013-03-24 06:37:00,
2013-03-24 02:43:00,26.2,-10.9,27.05,North,0,0.0,0.0,19,0.00,NA,NA,-99.99,wxupload 3.5,2013-03-24 06:43:00,
2013-03-24 02:49:00,26.2,-10.9,27.05,North,0,0.0,0.0,19,0.00,NA,NA,-99.99,wxupload 3.5,2013-03-24 06:49:00,
2013-03-24 02:55:00,26.2,-10.9,27.05,North,0,0.0,0.0,19,0.00,NA,NA,-99.99,wxupload 3.5,2013-03-24 06:55:00,
2013-03-24 03:00:00,26.2,-10.9,27.05,North,0,0.0,0.0,19,0.00,NA,NA,-99.99,wxupload 3.5,2013-03-24 07:00:00,
2013-03-24 03:06:00,26.1,-11.1,27.05,North,0,0.0,0.0,19,0.00,NA,NA,-99.99,wxupload 3.5,2013-03-24 07:06:00,
2013-03-24 03:12:00,26.1,-11.1,27.05,North,0,0.0,0.0,19,0.00,NA,NA,-99.99,wxupload 3.5,2013-03-24 07:12:00,
2013-03-24 03:18:00,26.1,-11.1,27.05,North,0,0.0,0.0,19,0.00,NA,NA,-99.99,wxupload 3.5,2013-03-24 07:18:00,
2013-03-24 03:24:00,25.9,-11.2,27.05,North,0,0.0,0.0,19,0.00,NA,NA,-99.99,wxupload 3.5,2013-03-24 07:24:00,
2013-03-24 03:30:00,25.9,-11.2,27.05,North,0,0.0,0.0,19,0.00,NA,NA,-99.99,wxupload 3.5,2013-03-24 07:30:00,
2013-03-24 03:36:00,25.9,-11.2,27.05,North,0,0.0,0.0,19,0.00,NA,NA,-99.99,wxupload 3.5,2013-03-24 07:36:00,
2013-03-24 03:42:00,25.9,-11.2,27.05,North,0,0.0,0.0,19,0.00,NA,NA,-99.99,wxupload 3.5,2013-03-24 07:42:00,
2013-03-24 03:48:00,25.7,-11.4,27.05,North,0,0.0,0.0,19,0.00,NA,NA,-99.99,wxupload 3.5,2013-03-24 07:48:00,
2013-03-24 03:54:00,25.5,-11.5,27.05,North,0,0.0,0.0,19,0.00,NA,NA,-99.99,wxupload 3.5,2013-03-24 07:54:00,
2013-03-24 04:01:00,25.5,-11.5,27.05,North,0,0.0,0.0,19,0.00,NA,NA,-99.99,wxupload 3.5,2013-03-24 08:01:00,
2013-03-24 04:07:00,25.5,-11.5,27.05,North,0,0.0,0.0,19,0.00,NA,NA,-99.99,wxupload 3.5,2013-03-24 08:07:00,
2013-03-24 04:13:00,25.5,-11.5,27.05,North,0,0.0,0.0,19,0.00,NA,NA,-99.99,wxupload 3.5,2013-03-24 08:13:00,
2013-03-24 04:18:00,25.7,-11.4,27.05,North,0,0.0,0.0,19,0.00,NA,NA,-99.99,wxupload 3.5,2013-03-24 08:18:00,
2013-03-24 04:24:00,25.7,-11.4,27.05,North,0,0.0,0.0,19,0.00,NA,NA,-99.99,wxupload 3.5,2013-03-24 08:24:00,
2013-03-24 04:30:00,25.9,-11.2,27.05,North,0,0.0,0.0,19,0.00,NA,NA,-99.99,wxupload 3.5,2013-03-24 08:30:00,
2013-03-24 04:36:00,25.9,-11.2,27.05,North,0,0.0,0.0,19,0.00,NA,NA,-99.99,wxupload 3.5,2013-03-24 08:36:00,
2013-03-24 04:42:00,25.9,-11.2,27.05,North,0,0.0,0.0,19,0.00,NA,NA,-99.99,wxupload 3.5,2013-03-24 08:42:00,
2013-03-24 04:48:00,26.1,-11.1,27.05,North,0,0.0,0.0,19,0.00,NA,NA,-99.99,wxupload 3.5,2013-03-24 08:48:00,
2013-03-24 04:54:00,26.1,-11.1,27.05,North,0,0.0,0.0,19,0.00,NA,NA,-99.99,wxupload 3.5,2013-03-24 08:54:00,
2013-03-24 05:00:00,26.1,-11.1,27.05,North,0,0.0,0.0,19,0.00,NA,NA,-99.99,wxupload 3.5,2013-03-24 09:00:00,
2013-03-24 05:06:00,26.1,-11.1,27.05,North,0,0.0,0.0,19,0.00,NA,NA,-99.99,wxupload 3.5,2013-03-24 09:06:00,
2013-03-24 05:12:00,26.1,-11.1,27.05,North,0,0.0,0.0,19,0.00,NA,NA,-99.99,wxupload 3.5,2013-03-24 09:12:00,
2013-03-24 05:19:00,26.1,-11.1,27.05,North,0,0.0,0.0,19,0.00,NA,NA,-99.99,wxupload 3.5,2013-03-24 09:19:00,
2013-03-24 05:25:00,26.1,-11.1,27.05,North,0,0.0,0.0,19,0.00,NA,NA,-99.99,wxupload 3.5,2013-03-24 09:25:00,
2013-03-24 05:31:00,26.1,-11.1,27.05,North,0,0.0,0.0,19,0.00,NA,NA,-99.99,wxupload 3.5,2013-03-24 09:31:00,
2013-03-24 05:37:00,26.1,-11.1,27.05,North,0,0.0,0.0,19,0.00,NA,NA,-99.99,wxupload 3.5,2013-03-24 09:37:00,
2013-03-24 05:42:00,26.1,-11.1,27.05,North,0,0.0,0.0,19,0.00,NA,NA,-99.99,wxupload 3.5,2013-03-24 09:42:00,
2013-03-24 05:48:00,26.1,-11.1,27.05,North,0,0.0,0.0,19,0.00,NA,NA,-99.99,wxupload 3.5,2013-03-24 09:48:00,
2013-03-24 05:54:00,26.1,-11.1,27.05,North,0,0.0,0.0,19,0.00,NA,NA,-99.99,wxupload 3.5,2013-03-24 09:54:00,
2013-03-24 06:00:00,26.1,-11.1,27.05,North,0,0.0,0.0,19,0.00,NA,NA,-99.99,wxupload 3.5,2013-03-24 10:00:00,
2013-03-24 06:06:00,26.1,-11.1,27.05,North,0,0.0,0.0,19,0.00,NA,NA,-99.99,wxupload 3.5,2013-03-24 10:06:00,
2013-03-24 06:12:00,26.1,-11.1,27.05,North,0,0.0,0.0,19,0.00,NA,NA,-99.99,wxupload 3.5,2013-03-24 10:12:00,
2013-03-24 06:18:00,26.2,-10.9,27.05,North,0,0.0,0.0,19,0.00,NA,NA,-99.99,wxupload 3.5,2013-03-24 10:18:00,
2013-03-24 06:24:00,26.2,-10.9,27.05,North,0,0.0,0.0,19,0.00,NA,NA,-99.99,wxupload 3.5,2013-03-24 10:24:00,
2013-03-24 06:30:00,26.2,-10.9,27.05,North,0,0.0,0.0,19,0.00,NA,NA,-99.99,wxupload 3.5,2013-03-24 10:30:00,
2013-03-24 06:36:00,26.2,-10.9,27.05,North,0,0.0,0.0,19,0.00,NA,NA,-99.99,wxupload 3.5,2013-03-24 10:36:00,
2013-03-24 06:43:00,26.2,-10.9,27.05,North,0,0.0,0.0,19,0.00,NA,NA,-99.99,wxupload 3.5,2013-03-24 10:43:00,
2013-03-24 06:49:00,26.2,-10.9,27.05,North,0,0.0,0.0,19,0.00,NA,NA,-99.99,wxupload 3.5,2013-03-24 10:49:00,
2013-03-24 06:55:00,26.2,-10.9,27.05,North,0,0.0,0.0,19,0.00,NA,NA,-99.99,wxupload 3.5,2013-03-24 10:55:00,
2013-03-24 07:01:00,26.4,-10.7,27.05,North,0,0.0,0.0,19,0.00,NA,NA,-99.99,wxupload 3.5,2013-03-24 11:01:00,
2013-03-24 07:07:00,26.4,-10.7,27.05,North,0,0.0,0.0,19,0.00,NA,NA,-99.99,wxupload 3.5,2013-03-24 11:07:00,
2013-03-24 07:12:00,26.4,-10.7,27.05,North,0,0.0,0.0,19,0.00,NA,NA,-99.99,wxupload 3.5,2013-03-24 11:12:00,
2013-03-24 07:18:00,26.4,-10.7,27.05,North,0,0.0,0.0,19,0.00,NA,NA,-99.99,wxupload 3.5,2013-03-24 11:18:00,
2013-03-24 07:24:00,26.4,-10.7,27.05,North,0,0.0,0.0,19,0.00,NA,NA,-99.99,wxupload 3.5,2013-03-24 11:24:00,
2013-03-24 07:30:00,26.4,-10.7,27.05,North,0,0.0,0.0,19,0.00,NA,NA,-99.99,wxupload 3.5,2013-03-24 11:30:00,
2013-03-24 07:36:00,26.6,-10.6,27.05,North,0,0.0,0.0,19,0.00,NA,NA,-99.99,wxupload 3.5,2013-03-24 11:36:00,
2013-03-24 07:42:00,26.6,-10.6,27.05,North,0,0.0,0.0,19,0.00,NA,NA,-99.99,wxupload 3.5,2013-03-24 11:42:00,
2013-03-24 07:48:00,26.8,-11.6,27.05,North,0,0.0,0.0,18,0.00,NA,NA,-99.99,wxupload 3.5,2013-03-24 11:48:00,
2013-03-24 07:54:00,27.0,-11.4,27.05,North,0,0.0,0.0,18,0.00,NA,NA,-99.99,wxupload 3.5,2013-03-24 11:54:00,
2013-03-24 08:00:00,27.0,-11.4,27.05,North,0,0.0,0.0,18,0.00,NA,NA,-99.99,wxupload 3.5,2013-03-24 12:00:00,
2013-03-24 08:07:00,27.1,-11.3,27.05,North,0,0.0,0.0,18,0.00,NA,NA,-99.99,wxupload 3.5,2013-03-24 12:07:00,
2013-03-24 08:13:00,27.3,-11.1,27.05,North,0,0.0,0.0,18,0.00,NA,NA,-99.99,wxupload 3.5,2013-03-24 12:13:00,
2013-03-24 08:19:00,27.5,-10.9,27.05,North,0,0.0,0.0,18,0.00,NA,NA,-99.99,wxupload 3.5,2013-03-24 12:19:00,
2013-03-24 08:24:00,27.7,-10.8,27.05,North,0,0.0,0.0,18,0.00,NA,NA,-99.99,wxupload 3.5,2013-03-24 12:24:00,
2013-03-24 08:30:00,27.9,-10.6,27.05,North,0,0.0,0.0,18,0.00,NA,NA,-99.99,wxupload 3.5,2013-03-24 12:30:00,
2013-03-24 08:36:00,28.0,-10.5,27.05,North,0,0.0,0.0,18,0.00,NA,NA,-99.99,wxupload 3.5,2013-03-24 12:36:00,
2013-03-24 08:42:00,28.4,-10.2,27.05,North,0,0.0,0.0,18,0.00,NA,NA,-99.99,wxupload 3.5,2013-03-24 12:42:00,
2013-03-24 08:48:00,28.6,-10.0,27.05,North,0,0.0,0.0,18,0.00,NA,NA,-99.99,wxupload 3.5,2013-03-24 12:48:00,
2013-03-24 08:54:00,28.8,-9.9,27.05,North,0,0.0,0.0,18,0.00,NA,NA,-99.99,wxupload 3.5,2013-03-24 12:54:00,
2013-03-24 09:00:00,28.9,-9.7,27.05,North,0,0.0,0.0,18,0.00,NA,NA,-99.99,wxupload 3.5,2013-03-24 13:00:00,
2013-03-24 09:06:00,29.3,-9.4,27.05,North,0,0.0,0.0,18,0.00,NA,NA,-99.99,wxupload 3.5,2013-03-24 13:06:00,
2013-03-24 09:12:00,29.3,-9.4,27.05,North,0,0.0,0.0,18,0.00,NA,NA,-99.99,wxupload 3.5,2013-03-24 13:12:00,
2013-03-24 09:18:00,29.7,-9.1,27.05,North,0,0.0,0.0,18,0.00,NA,NA,-99.99,wxupload 3.5,2013-03-24 13:18:00,
2013-03-24 09:24:00,29.8,-9.0,27.05,North,0,0.0,0.0,18,0.00,NA,NA,-99.99,wxupload 3.5,2013-03-24 13:24:00,
2013-03-24 09:31:00,30.2,-8.7,27.05,North,0,0.0,0.0,18,0.00,NA,NA,-99.99,wxupload 3.5,2013-03-24 13:31:00,
2013-03-24 09:37:00,30.4,-8.5,27.05,North,0,0.0,0.0,18,0.00,NA,NA,-99.99,wxupload 3.5,2013-03-24 13:37:00,
2013-03-24 09:43:00,30.6,-8.4,27.05,North,0,0.0,0.0,18,0.00,NA,NA,-99.99,wxupload 3.5,2013-03-24 13:43:00,
2013-03-24 09:49:00,30.7,-8.2,27.05,North,0,0.0,0.0,18,0.00,NA,NA,-99.99,wxupload 3.5,2013-03-24 13:49:00,
2013-03-24 09:54:00,30.9,-8.0,27.05,North,0,0.0,0.0,18,0.00,NA,NA,-99.99,wxupload 3.5,2013-03-24 13:54:00,
2013-03-24 10:00:00,30.9,-8.0,27.05,North,0,0.0,0.0,18,0.00,NA,NA,-99.99,wxupload 3.5,2013-03-24 14:00:00,
2013-03-24 10:07:00,31.1,-7.9,27.05,North,0,0.0,0.0,18,0.00,NA,NA,-99.99,wxupload 3.5,2013-03-24 14:07:00,
2013-03-24 10:12:00,31.3,-7.7,27.05,North,0,0.0,0.0,18,0.00,NA,NA,-99.99,wxupload 3.5,2013-03-24 14:12:00,
2013-03-24 10:18:00,31.5,-7.6,27.05,North,0,0.0,0.0,18,0.00,NA,NA,-99.99,wxupload 3.5,2013-03-24 14:18:00,
2013-03-24 10:24:00,31.5,-7.6,27.05,North,0,0.0,0.0,18,0.00,NA,NA,-99.99,wxupload 3.5,2013-03-24 14:24:00,
2013-03-24 10:30:00,31.6,-7.4,27.05,North,0,0.0,0.0,18,0.00,NA,NA,-99.99,wxupload 3.5,2013-03-24 14:30:00,
2013-03-24 10:36:00,31.6,-7.4,27.05,North,0,0.0,0.0,18,0.00,NA,NA,-99.99,wxupload 3.5,2013-03-24 14:36:00,
2013-03-24 10:42:00,31.6,-7.4,27.05,North,0,0.0,0.0,18,0.00,NA,NA,-99.99,wxupload 3.5,2013-03-24 14:42:00,
2013-03-24 10:48:00,31.8,-7.3,27.05,North,0,0.0,0.0,18,0.00,NA,NA,-99.99,wxupload 3.5,2013-03-24 14:48:00,
2013-03-24 10:54:00,32.2,-7.0,27.05,North,0,0.0,0.0,18,0.00,NA,NA,-99.99,wxupload 3.5,2013-03-24 14:54:00,
2013-03-24 11:01:00,32.2,-7.0,27.05,North,0,0.0,0.0,18,0.00,NA,NA,-99.99,wxupload 3.5,2013-03-24 15:01:00,
2013-03-24 11:07:00,32.2,-7.0,27.05,North,0,0.0,0.0,18,0.00,NA,NA,-99.99,wxupload 3.5,2013-03-24 15:07:00,
2013-03-24 11:13:00,32.0,-7.1,27.05,North,0,0.0,0.0,18,0.00,NA,NA,-99.99,wxupload 3.5,2013-03-24 15:13:00,
2013-03-24 11:19:00,32.2,-7.0,27.05,North,0,0.0,0.0,18,0.00,NA,NA,-99.99,wxupload 3.5,2013-03-24 15:19:00,
2013-03-24 11:24:00,32.2,-7.0,27.05,North,0,0.0,0.0,18,0.00,NA,NA,-99.99,wxupload 3.5,2013-03-24 15:24:00,
2013-03-24 11:30:00,32.2,-7.0,27.05,North,0,0.0,0.0,18,0.00,NA,NA,-99.99,wxupload 3.5,2013-03-24 15:30:00,
2013-03-24 11:36:00,32.4,-6.8,27.05,North,0,0.0,0.0,18,0.00,NA,NA,-99.99,wxupload 3.5,2013-03-24 15:36:00,
2013-03-24 11:42:00,32.4,-6.8,27.05,North,0,0.0,0.0,18,0.00,NA,NA,-99.99,wxupload 3.5,2013-03-24 15:42:00,
2013-03-24 11:48:00,32.5,-6.7,27.05,North,0,0.0,0.0,18,0.00,NA,NA,-99.99,wxupload 3.5,2013-03-24 15:48:00,
2013-03-24 11:54:00,32.7,-6.5,27.05,North,0,0.0,0.0,18,0.00,NA,NA,-99.99,wxupload 3.5,2013-03-24 15:54:00,
2013-03-24 12:00:00,32.7,-6.5,27.05,North,0,0.0,0.0,18,0.00,NA,NA,-99.99,wxupload 3.5,2013-03-24 16:00:00,
2013-03-24 12:06:00,32.9,-6.4,27.05,North,0,0.0,0.0,18,0.00,NA,NA,-99.99,wxupload 3.5,2013-03-24 16:06:00,
2013-03-24 12:12:00,32.9,-6.4,27.05,North,0,0.0,0.0,18,0.00,NA,NA,-99.99,wxupload 3.5,2013-03-24 16:12:00,
2013-03-24 12:18:00,32.9,-6.4,27.05,North,0,0.0,0.0,18,0.00,NA,NA,-99.99,wxupload 3.5,2013-03-24 16:18:00,
2013-03-24 12:24:00,33.1,-6.2,27.05,North,0,0.0,0.0,18,0.00,NA,NA,-99.99,wxupload 3.5,2013-03-24 16:24:00,
2013-03-24 12:30:00,32.9,-6.4,27.05,North,0,0.0,0.0,18,0.00,NA,NA,-99.99,wxupload 3.5,2013-03-24 16:30:00,
2013-03-24 12:37:00,33.3,-6.1,27.05,North,0,0.0,0.0,18,0.00,NA,NA,-99.99,wxupload 3.5,2013-03-24 16:37:00,
2013-03-24 12:43:00,33.3,-6.1,27.05,North,0,0.0,0.0,18,0.00,NA,NA,-99.99,wxupload 3.5,2013-03-24 16:43:00,
2013-03-24 12:49:00,33.3,-6.1,27.05,North,0,0.0,0.0,18,0.00,NA,NA,-99.99,wxupload 3.5,2013-03-24 16:49:00,
2013-03-24 12:55:00,33.3,-6.1,27.05,North,0,0.0,0.0,18,0.00,NA,NA,-99.99,wxupload 3.5,2013-03-24 16:55:00,
2013-03-24 13:00:00,33.3,-6.1,27.05,North,0,0.0,0.0,18,0.00,NA,NA,-99.99,wxupload 3.5,2013-03-24 17:00:00,
2013-03-24 13:06:00,33.3,-6.1,27.05,North,0,0.0,0.0,18,0.00,NA,NA,-99.99,wxupload 3.5,2013-03-24 17:06:00,
2013-03-24 13:12:00,33.1,-6.2,27.05,North,0,0.0,0.0,18,0.00,NA,NA,-99.99,wxupload 3.5,2013-03-24 17:12:00,
2013-03-24 13:18:00,33.1,-6.2,27.05,North,0,0.0,0.0,18,0.00,NA,NA,-99.99,wxupload 3.5,2013-03-24 17:18:00,
2013-03-24 13:24:00,32.9,-6.4,27.05,North,0,0.0,0.0,18,0.00,NA,NA,-99.99,wxupload 3.5,2013-03-24 17:24:00,
2013-03-24 13:30:00,32.7,-6.5,27.05,North,0,0.0,0.0,18,0.00,NA,NA,-99.99,wxupload 3.5,2013-03-24 17:30:00,
2013-03-24 13:36:00,32.9,-6.4,27.05,North,0,0.0,0.0,18,0.00,NA,NA,-99.99,wxupload 3.5,2013-03-24 17:36:00,
2013-03-24 13:42:00,33.1,-6.2,27.05,North,0,0.0,0.0,18,0.00,NA,NA,-99.99,wxupload 3.5,2013-03-24 17:42:00,
2013-03-24 13:48:00,33.3,-6.1,27.05,North,0,0.0,0.0,18,0.00,NA,NA,-99.99,wxupload 3.5,2013-03-24 17:48:00,
2013-03-24 13:54:00,33.4,-5.9,27.05,North,0,0.0,0.0,18,0.00,NA,NA,-99.99,wxupload 3.5,2013-03-24 17:54:00,
2013-03-24 14:00:00,33.8,-6.8,27.05,North,0,0.0,0.0,17,0.00,NA,NA,-99.99,wxupload 3.5,2013-03-24 18:00:00,
2013-03-24 14:06:00,34.3,-6.4,27.05,North,0,0.0,0.0,17,0.00,NA,NA,-99.99,wxupload 3.5,2013-03-24 18:06:00,
2013-03-24 14:13:00,34.5,-6.2,27.05,North,0,0.0,0.0,17,0.00,NA,NA,-99.99,wxupload 3.5,2013-03-24 18:13:00,
2013-03-24 14:19:00,34.5,-6.2,27.05,North,0,0.0,0.0,17,0.00,NA,NA,-99.99,wxupload 3.5,2013-03-24 18:19:00,
2013-03-24 14:25:00,34.3,-6.4,27.05,North,0,0.0,0.0,17,0.00,NA,NA,-99.99,wxupload 3.5,2013-03-24 18:25:00,
2013-03-24 14:31:00,34.3,-6.4,27.05,North,0,0.0,0.0,17,0.00,NA,NA,-99.99,wxupload 3.5,2013-03-24 18:31:00,
2013-03-24 14:37:00,34.7,-6.1,27.05,North,0,0.0,0.0,17,0.00,NA,NA,-99.99,wxupload 3.5,2013-03-24 18:37:00,
2013-03-24 14:42:00,34.3,-6.4,27.05,North,0,0.0,0.0,17,0.00,NA,NA,-99.99,wxupload 3.5,2013-03-24 18:42:00,
2013-03-24 14:48:00,34.3,-6.4,27.05,North,0,0.0,0.0,17,0.00,NA,NA,-99.99,wxupload 3.5,2013-03-24 18:48:00,
2013-03-24 14:54:00,34.0,-6.7,27.05,North,0,0.0,0.0,17,0.00,NA,NA,-99.99,wxupload 3.5,2013-03-24 18:54:00,
2013-03-24 15:00:00,33.8,-6.8,27.05,North,0,0.0,0.0,17,0.00,NA,NA,-99.99,wxupload 3.5,2013-03-24 19:00:00,
2013-03-24 15:06:00,33.8,-6.8,27.05,North,0,0.0,0.0,17,0.00,NA,NA,-99.99,wxupload 3.5,2013-03-24 19:06:00,
2013-03-24 15:12:00,33.6,-5.8,27.05,North,0,0.0,0.0,18,0.00,NA,NA,-99.99,wxupload 3.5,2013-03-24 19:12:00,
2013-03-24 15:18:00,33.4,-5.9,27.05,North,0,0.0,0.0,18,0.00,NA,NA,-99.99,wxupload 3.5,2013-03-24 19:18:00,
2013-03-24 15:24:00,33.3,-6.1,27.05,North,0,0.0,0.0,18,0.00,NA,NA,-99.99,wxupload 3.5,2013-03-24 19:24:00,
2013-03-24 15:30:00,33.1,-6.2,27.05,North,0,0.0,0.0,18,0.00,NA,NA,-99.99,wxupload 3.5,2013-03-24 19:30:00,
2013-03-24 15:38:00,32.5,-6.7,27.05,North,0,0.0,0.0,18,0.00,NA,NA,-99.99,wxupload 3.5,2013-03-24 19:38:00,
2013-03-24 15:44:00,32.4,-6.8,27.05,North,0,0.0,0.0,18,0.00,NA,NA,-99.99,wxupload 3.5,2013-03-24 19:44:00,
2013-03-24 15:50:00,32.2,-7.0,27.05,North,0,0.0,0.0,18,0.00,NA,NA,-99.99,wxupload 3.5,2013-03-24 19:50:00,
2013-03-24 15:56:00,31.3,-7.7,27.05,North,0,0.0,0.0,18,0.00,NA,NA,-99.99,wxupload 3.5,2013-03-24 19:56:00,
2013-03-24 16:02:00,30.7,-8.2,27.05,North,0,0.0,0.0,18,0.00,NA,NA,-99.99,wxupload 3.5,2013-03-24 20:02:00,
2013-03-24 16:08:00,30.6,-8.4,27.05,North,0,0.0,0.0,18,0.00,NA,NA,-99.99,wxupload 3.5,2013-03-24 20:08:00,
2013-03-24 16:14:00,30.4,-8.5,27.05,North,0,0.0,0.0,18,0.00,NA,NA,-99.99,wxupload 3.5,2013-03-24 20:14:00,
2013-03-24 16:20:00,30.2,-8.7,27.05,North,0,0.0,0.0,18,0.00,NA,NA,-99.99,wxupload 3.5,2013-03-24 20:20:00,
2013-03-24 16:26:00,30.0,-8.8,27.05,North,0,0.0,0.0,18,0.00,NA,NA,-99.99,wxupload 3.5,2013-03-24 20:26:00,
2013-03-24 16:32:00,29.8,-9.0,27.05,North,0,0.0,0.0,18,0.00,NA,NA,-99.99,wxupload 3.5,2013-03-24 20:32:00,
2013-03-24 16:38:00,29.5,-9.3,27.05,North,0,0.0,0.0,18,0.00,NA,NA,-99.99,wxupload 3.5,2013-03-24 20:38:00,
2013-03-24 16:44:00,29.3,-7.2,27.05,North,0,0.0,0.0,20,0.00,NA,NA,-99.99,wxupload 3.5,2013-03-24 20:44:00,
2013-03-24 16:50:00,29.1,-7.4,27.05,North,0,0.0,0.0,20,0.00,NA,NA,-99.99,wxupload 3.5,2013-03-24 20:50:00,
2013-03-24 16:56:00,28.9,-7.5,27.05,North,0,0.0,0.0,20,0.00,NA,NA,-99.99,wxupload 3.5,2013-03-24 20:56:00,
2013-03-24 17:03:00,28.9,-7.5,27.05,North,0,0.0,0.0,20,0.00,NA,NA,-99.99,wxupload 3.5,2013-03-24 21:03:00,
2013-03-24 17:09:00,28.8,-7.7,27.05,North,0,0.0,0.0,20,0.00,NA,NA,-99.99,wxupload 3.5,2013-03-24 21:09:00,
2013-03-24 17:15:00,28.8,-4.7,27.05,North,0,0.0,0.0,23,0.00,NA,NA,-99.99,wxupload 3.5,2013-03-24 21:15:00,
2013-03-24 17:21:00,28.6,-4.9,27.05,North,0,0.0,0.0,23,0.00,NA,NA,-99.99,wxupload 3.5,2013-03-24 21:21:00,
2013-03-24 17:26:00,28.6,-4.9,27.05,North,0,0.0,0.0,23,0.00,NA,NA,-99.99,wxupload 3.5,2013-03-24 21:26:00,
2013-03-24 17:32:00,28.6,-4.9,27.05,North,0,0.0,0.0,23,0.00,NA,NA,-99.99,wxupload 3.5,2013-03-24 21:32:00,
2013-03-24 17:38:00,28.4,-5.0,27.05,North,0,0.0,0.0,23,0.00,NA,NA,-99.99,wxupload 3.5,2013-03-24 21:38:00,
2013-03-24 17:44:00,28.4,-2.4,27.05,North,0,0.0,0.0,26,0.00,NA,NA,-99.99,wxupload 3.5,2013-03-24 21:44:00,
2013-03-24 17:50:00,28.6,-3.1,27.05,North,0,0.0,0.0,25,0.00,NA,NA,-99.99,wxupload 3.5,2013-03-24 21:50:00,
2013-03-24 17:56:00,28.6,-3.1,27.05,North,0,0.0,0.0,25,0.00,NA,NA,-99.99,wxupload 3.5,2013-03-24 21:56:00,
2013-03-24 18:02:00,28.6,-0.7,27.05,North,0,0.0,0.0,28,0.00,NA,NA,-99.99,wxupload 3.5,2013-03-24 22:02:00,
2013-03-24 18:08:00,28.6,-0.7,27.05,North,0,0.0,0.0,28,0.00,NA,NA,-99.99,wxupload 3.5,2013-03-24 22:08:00,
2013-03-24 18:14:00,28.6,-0.7,27.05,North,0,0.0,0.0,28,0.00,NA,NA,-99.99,wxupload 3.5,2013-03-24 22:14:00,
2013-03-24 18:20:00,28.4,-0.8,27.05,North,0,0.0,0.0,28,0.00,NA,NA,-99.99,wxupload 3.5,2013-03-24 22:20:00,
2013-03-24 18:26:00,28.4,-0.8,27.05,North,0,0.0,0.0,28,0.00,NA,NA,-99.99,wxupload 3.5,2013-03-24 22:26:00,
2013-03-24 18:32:00,28.4,-0.8,27.05,North,0,0.0,0.0,28,0.00,NA,NA,-99.99,wxupload 3.5,2013-03-24 22:32:00,
2013-03-24 18:38:00,28.4,1.4,27.05,North,0,0.0,0.0,31,0.00,NA,NA,-99.99,wxupload 3.5,2013-03-24 22:38:00,
2013-03-24 18:45:00,28.2,1.2,27.05,North,0,0.0,0.0,31,0.00,NA,NA,-99.99,wxupload 3.5,2013-03-24 22:45:00,
2013-03-24 18:51:00,28.2,1.2,27.05,North,0,0.0,0.0,31,0.00,NA,NA,-99.99,wxupload 3.5,2013-03-24 22:51:00,
2013-03-24 18:57:00,28.0,1.0,27.05,North,0,0.0,0.0,31,0.00,NA,NA,-99.99,wxupload 3.5,2013-03-24 22:57:00,
2013-03-24 19:03:00,28.0,1.0,27.05,North,0,0.0,0.0,31,0.00,NA,NA,-99.99,wxupload 3.5,2013-03-24 23:03:00,
2013-03-24 19:08:00,28.0,1.7,27.05,North,0,0.0,0.0,32,0.00,NA,NA,-99.99,wxupload 3.5,2013-03-24 23:08:00,
2013-03-24 19:14:00,27.9,1.6,27.05,North,0,0.0,0.0,32,0.00,NA,NA,-99.99,wxupload 3.5,2013-03-24 23:14:00,
2013-03-24 19:20:00,27.9,1.6,27.05,North,0,0.0,0.0,32,0.00,NA,NA,-99.99,wxupload 3.5,2013-03-24 23:20:00,
2013-03-24 19:26:00,27.9,1.6,27.05,North,0,0.0,0.0,32,0.00,NA,NA,-99.99,wxupload 3.5,2013-03-24 23:26:00,
2013-03-24 19:32:00,27.9,2.3,27.05,North,0,0.0,0.0,33,0.00,NA,NA,-99.99,wxupload 3.5,2013-03-24 23:32:00,
2013-03-24 19:38:00,27.7,2.1,27.05,North,0,0.0,0.0,33,0.00,NA,NA,-99.99,wxupload 3.5,2013-03-24 23:38:00,
2013-03-24 19:44:00,27.7,2.1,27.05,North,0,0.0,0.0,33,0.00,NA,NA,-99.99,wxupload 3.5,2013-03-24 23:44:00,
2013-03-24 19:50:00,27.7,2.1,27.05,North,0,0.0,0.0,33,0.00,NA,NA,-99.99,wxupload 3.5,2013-03-24 23:50:00,
2013-03-24 19:56:00,27.7,2.1,27.05,North,0,0.0,0.0,33,0.00,NA,NA,-99.99,wxupload 3.5,2013-03-24 23:56:00,
2013-03-24 20:02:00,27.7,2.7,27.05,North,0,0.0,0.0,34,0.00,NA,NA,-99.99,wxupload 3.5,2013-03-25 00:02:00,
2013-03-24 20:08:00,27.5,2.6,27.05,North,0,0.0,0.0,34,0.00,NA,NA,-99.99,wxupload 3.5,2013-03-25 00:08:00,
2013-03-24 20:14:00,27.5,3.2,27.05,North,0,0.0,0.0,35,0.00,NA,NA,-99.99,wxupload 3.5,2013-03-25 00:14:00,
2013-03-24 20:20:00,27.5,3.2,27.05,North,0,0.0,0.0,35,0.00,NA,NA,-99.99,wxupload 3.5,2013-03-25 00:20:00,
2013-03-24 20:28:00,27.5,3.8,27.05,North,0,0.0,0.0,36,0.00,NA,NA,-99.99,wxupload 3.5,2013-03-25 00:28:00,
2013-03-24 20:34:00,27.5,3.8,27.05,North,0,0.0,0.0,36,0.00,NA,NA,-99.99,wxupload 3.5,2013-03-25 00:34:00,
2013-03-24 20:40:00,27.5,4.4,27.05,North,0,0.0,0.0,37,0.00,NA,NA,-99.99,wxupload 3.5,2013-03-25 00:40:00,
2013-03-24 20:47:00,27.5,5.0,27.05,North,0,0.0,0.0,38,0.00,NA,NA,-99.99,wxupload 3.5,2013-03-25 00:47:00,
2013-03-24 20:52:00,27.5,5.0,27.05,North,0,0.0,0.0,38,0.00,NA,NA,-99.99,wxupload 3.5,2013-03-25 00:52:00,
2013-03-24 20:58:00,27.5,5.6,27.05,North,0,0.0,0.0,39,0.00,NA,NA,-99.99,wxupload 3.5,2013-03-25 00:58:00,
2013-03-24 21:04:00,27.5,6.2,27.05,North,0,0.0,0.0,40,0.00,NA,NA,-99.99,wxupload 3.5,2013-03-25 01:04:00,
2013-03-24 21:10:00,27.3,6.6,27.05,North,0,0.0,0.0,41,0.00,NA,NA,-99.99,wxupload 3.5,2013-03-25 01:10:00,
2013-03-24 21:16:00,27.3,6.6,27.05,North,0,0.0,0.0,41,0.00,NA,NA,-99.99,wxupload 3.5,2013-03-25 01:16:00,
2013-03-24 21:22:00,27.3,6.6,27.05,North,0,0.0,0.0,41,0.00,NA,NA,-99.99,wxupload 3.5,2013-03-25 01:22:00,
2013-03-24 21:28:00,27.3,6.6,27.05,North,0,0.0,0.0,41,0.00,NA,NA,-99.99,wxupload 3.5,2013-03-25 01:28:00,
2013-03-24 21:34:00,27.5,6.7,27.05,North,0,0.0,0.0,41,0.00,NA,NA,-99.99,wxupload 3.5,2013-03-25 01:34:00,
2013-03-24 21:40:00,27.5,6.7,27.05,North,0,0.0,0.0,41,0.00,NA,NA,-99.99,wxupload 3.5,2013-03-25 01:40:00,
2013-03-24 21:47:00,27.5,6.7,27.05,North,0,0.0,0.0,41,0.00,NA,NA,-99.99,wxupload 3.5,2013-03-25 01:47:00,
2013-03-24 21:53:00,27.5,6.7,27.05,North,0,0.0,0.0,41,0.00,NA,NA,-99.99,wxupload 3.5,2013-03-25 01:53:00,
2013-03-24 21:59:00,27.5,6.7,27.05,North,0,0.0,0.0,41,0.00,NA,NA,-99.99,wxupload 3.5,2013-03-25 01:59:00,
2013-03-24 22:05:00,27.5,6.7,27.05,North,0,0.0,0.0,41,0.00,NA,NA,-99.99,wxupload 3.5,2013-03-25 02:05:00,
2013-03-24 22:11:00,27.5,6.7,27.05,North,0,0.0,0.0,41,0.00,NA,NA,-99.99,wxupload 3.5,2013-03-25 02:11:00,
2013-03-24 22:16:00,27.5,7.3,27.05,North,0,0.0,0.0,42,0.00,NA,NA,-99.99,wxupload 3.5,2013-03-25 02:16:00,
2013-03-24 22:22:00,27.7,7.4,27.05,North,0,0.0,0.0,42,0.00,NA,NA,-99.99,wxupload 3.5,2013-03-25 02:22:00,
2013-03-24 22:28:00,27.5,7.3,27.05,North,0,0.0,0.0,42,0.00,NA,NA,-99.99,wxupload 3.5,2013-03-25 02:28:00,
2013-03-24 22:34:00,27.5,7.3,27.05,North,0,0.0,0.0,42,0.00,NA,NA,-99.99,wxupload 3.5,2013-03-25 02:34:00,
2013-03-24 22:40:00,27.5,7.3,27.05,North,0,0.0,0.0,42,0.00,NA,NA,-99.99,wxupload 3.5,2013-03-25 02:40:00,
2013-03-24 22:48:00,27.5,7.3,27.05,North,0,0.0,0.0,42,0.00,NA,NA,-99.99,wxupload 3.5,2013-03-25 02:48:00,
2013-03-24 22:54:00,27.3,7.1,27.05,North,0,0.0,0.0,42,0.00,NA,NA,-99.99,wxupload 3.5,2013-03-25 02:54:00,
2013-03-24 23:00:00,27.3,7.1,27.05,North,0,0.0,0.0,42,0.00,NA,NA,-99.99,wxupload 3.5,2013-03-25 03:00:00,
2013-03-24 23:07:00,27.3,7.1,27.05,North,0,0.0,0.0,42,0.00,NA,NA,-99.99,wxupload 3.5,2013-03-25 03:07:00,
2013-03-24 23:13:00,27.3,7.1,27.05,North,0,0.0,0.0,42,0.00,NA,NA,-99.99,wxupload 3.5,2013-03-25 03:13:00,
2013-03-24 23:19:00,27.3,7.1,27.05,North,0,0.0,0.0,42,0.00,NA,NA,-99.99,wxupload 3.5,2013-03-25 03:19:00,
2013-03-24 23:25:00,27.3,7.1,27.05,North,0,0.0,0.0,42,0.00,NA,NA,-99.99,wxupload 3.5,2013-03-25 03:25:00,
2013-03-24 23:31:00,27.3,7.1,27.05,North,0,0.0,0.0,42,0.00,NA,NA,-99.99,wxupload 3.5,2013-03-25 03:31:00,
2013-03-24 23:36:00,27.3,7.1,27.05,North,0,0.0,0.0,42,0.00,NA,NA,-99.99,wxupload 3.5,2013-03-25 03:36:00,
2013-03-24 23:42:00,27.3,7.1,27.05,North,0,0.0,0.0,42,0.00,NA,NA,-99.99,wxupload 3.5,2013-03-25 03:42:00,
2013-03-24 23:48:00,27.3,7.1,27.05,North,0,0.0,0.0,42,0.00,NA,NA,-99.99,wxupload 3.5,2013-03-25 03:48:00,
2013-03-24 23:54:00,27.3,7.1,27.05,North,0,0.0,0.0,42,0.00,NA,NA,-99.99,wxupload 3.5,2013-03-25 03:54:00,